Lac La Biche, Alberta

Conditions des dernières 24 heures

Ce tableau est un sommaire des conditions météo couvrant les dernières 24 heures. Ce sommaire inclut les paramètres suivants: température, humidité, point de rosée, direction et vitesse du vent, pression barométrique, facteur de refroidissement éolien ou indice humidex.
Date / Heure
(HAR)
Conditions Temp (°C) Humidite (%) Point de rose (°C) Vent (km/h) Pression (kPa) Visibilité (km)
24 avril 2014
14:00 N.D. 3 88 1 ESE 11 100,9 N.D.
13:00 N.D. 4 85 1 ESE 16 100,9 N.D.
12:00 N.D. 3 89 2 ESE 14 100,9 N.D.
11:00 N.D. 2 91 1 ESE 9 100,8 N.D.
10:00 N.D. 2 96 1 ENE 5 100,8 N.D.
9:00 N.D. 1 99 1 NE 6 100,8 N.D.
8:00 N.D. 0   98 0 NE 8 100,7 N.D.
7:00 N.D. 1 98 0 NE 6 100,7 N.D.
6:00 N.D. 1 97 0 NE 6 100,6 N.D.
5:00 N.D. 1 96 1 ENE 9 100,6 N.D.
4:00 N.D. 1 96 1 ENE 8 100,5 N.D.
3:00 N.D. 2 96 1 ENE 11 100,5 N.D.
2:00 N.D. 2 94 1 ENE 7 100,5 N.D.
1:00 N.D. 2 93 1 ENE 12 100,4 N.D.
0:00 N.D. 3 93 2 E 12 100,4 N.D.
23 avril 2014
23:00 N.D. 3 92 2 E 19 100,4 N.D.
22:00 N.D. 3 93 2 E 11 100,4 N.D.
21:00 N.D. 4 93 3 E 16 100,3 N.D.
20:00 N.D. 4 90 3 E 15 100,3 N.D.
19:00 N.D. 5 91 3 E 16 100,3 N.D.
18:00 N.D. 5 90 3 ESE 19 rafale 34 100,2 N.D.
17:00 N.D. 5 90 3 ESE 21 rafale 34 100,2 N.D.
16:00 N.D. 5 90 3 ESE 14 rafale 28 100,2 N.D.
15:00 N.D. 7 67 1 ESE 27 rafale 51 100,1 N.D.
14:00 N.D. 8   60 1 ESE 19 rafale 41 100,0 N.D.
N.D.
non disponible
 ↑ 
température la plus haute
 ↓ 
température la plus basse

Si vous désirez plus de données historiques sur les conditions météo, s.v.p. visitez Données climatologiques en ligne.